Time,TemperatureF,DewpointF,PressureIn,WindDirection,WindDirectionDegrees,WindSpeedMPH,WindSpeedGustMPH,Humidity,HourlyPrecipIn,Conditions,Clouds,dailyrainin,SoftwareType,DateUTC
2013-10-22 00:04:00,47.4,46.0,29.74,South,174,0.0,0.0,95,0.00,RA,OVC,0.00,WeatherDisplay:10.37,2013-10-22 04:04:00,
2013-10-22 00:09:00,47.4,46.0,29.74,South,174,0.0,0.0,95,0.00,OVC,OVC,0.00,WeatherDisplay:10.37,2013-10-22 04:09:00,
2013-10-22 00:14:00,47.3,45.9,29.74,South,174,0.0,0.0,95,0.00,-RA,OVC,0.00,WeatherDisplay:10.37,2013-10-22 04:14:00,
2013-10-22 00:19:00,47.3,45.9,29.75,South,174,0.0,0.0,95,0.00,-RA,OVC,0.00,WeatherDisplay:10.37,2013-10-22 04:19:00,
2013-10-22 00:24:00,47.2,45.9,29.75,WSW,247,0.0,4.0,95,0.00,-RA,OVC,0.00,WeatherDisplay:10.37,2013-10-22 04:24:00,
2013-10-22 00:29:00,47.3,45.9,29.74,NW,307,0.0,0.0,95,0.00,-RA,OVC,0.00,WeatherDisplay:10.37,2013-10-22 04:29:00,
2013-10-22 00:34:00,47.3,45.9,29.74,NW,306,0.0,2.0,95,0.00,-RA,OVC,0.00,WeatherDisplay:10.37,2013-10-22 04:34:00,
2013-10-22 00:39:00,47.6,46.0,29.74,NW,320,0.0,0.0,94,0.00,-RA,OVC,0.00,WeatherDisplay:10.37,2013-10-22 04:39:00,
2013-10-22 00:44:00,47.9,46.0,29.74,NNW,341,0.0,0.0,93,0.00,-RA,OVC,0.00,WeatherDisplay:10.37,2013-10-22 04:44:00,
2013-10-22 00:49:00,48.1,46.1,29.74,North,355,0.0,0.0,93,0.00,-RA,OVC,0.00,WeatherDisplay:10.37,2013-10-22 04:49:00,
2013-10-22 00:54:00,48.5,46.3,29.74,NNE,33,0.0,2.0,92,0.00,-RA,OVC,0.00,WeatherDisplay:10.37,2013-10-22 04:54:00,
2013-10-22 00:59:00,48.8,46.3,29.74,East,83,0.0,0.0,91,0.00,-RA,OVC,0.00,WeatherDisplay:10.37,2013-10-22 04:59:00,
2013-10-22 01:04:00,48.7,46.2,29.73,East,88,0.0,0.0,91,0.00,-RA,OVC,0.00,WeatherDisplay:10.37,2013-10-22 05:04:00,
2013-10-22 01:09:00,48.4,46.2,29.73,East,90,0.0,0.0,92,0.00,-RA,OVC,0.00,WeatherDisplay:10.37,2013-10-22 05:09:00,
2013-10-22 01:14:00,48.0,45.8,29.73,East,90,0.0,0.0,92,0.00,OVC,OVC,0.00,WeatherDisplay:10.37,2013-10-22 05:14:00,
2013-10-22 01:19:00,47.8,45.9,29.73,East,90,0.0,0.0,93,0.00,OVC,OVC,0.00,WeatherDisplay:10.37,2013-10-22 05:19:00,
2013-10-22 01:24:00,47.6,46.0,29.73,East,90,0.0,0.0,94,0.00,OVC,OVC,0.00,WeatherDisplay:10.37,2013-10-22 05:24:00,
2013-10-22 01:29:00,47.5,45.9,29.73,East,90,0.0,0.0,94,0.00,OVC,OVC,0.00,WeatherDisplay:10.37,2013-10-22 05:29:00,
2013-10-22 01:34:00,47.4,45.8,29.73,East,90,0.0,0.0,94,0.00,OVC,OVC,0.00,WeatherDisplay:10.37,2013-10-22 05:34:00,
2013-10-22 01:39:00,47.3,45.7,29.73,East,90,0.0,0.0,94,0.00,OVC,OVC,0.00,WeatherDisplay:10.37,2013-10-22 05:39:00,
2013-10-22 01:44:00,47.3,45.9,29.73,East,90,0.0,0.0,95,0.00,OVC,OVC,0.00,WeatherDisplay:10.37,2013-10-22 05:44:00,
2013-10-22 01:49:00,47.3,45.9,29.73,East,90,0.0,0.0,95,0.00,OVC,OVC,0.00,WeatherDisplay:10.37,2013-10-22 05:49:00,
2013-10-22 01:59:00,47.5,45.8,29.73,East,90,0.0,0.0,94,0.00,OVC,OVC,0.00,WeatherDisplay:10.37,2013-10-22 05:59:00,
2013-10-22 02:04:00,47.3,45.7,29.73,East,84,0.0,1.0,94,0.00,OVC,OVC,0.00,WeatherDisplay:10.37,2013-10-22 06:04:00,
2013-10-22 02:09:00,47.4,45.8,29.73,ENE,74,0.0,1.0,94,0.00,OVC,OVC,0.00,WeatherDisplay:10.37,2013-10-22 06:09:00,
2013-10-22 02:19:00,47.2,45.6,29.72,ENE,74,0.0,0.0,94,0.00,OVC,OVC,0.00,WeatherDisplay:10.37,2013-10-22 06:19:00,
2013-10-22 02:24:00,47.1,45.7,29.72,ENE,74,0.0,0.0,95,0.00,OVC,OVC,0.00,WeatherDisplay:10.37,2013-10-22 06:24:00,
2013-10-22 02:29:00,47.0,45.6,29.72,ENE,74,0.0,0.0,95,0.00,OVC,OVC,0.00,WeatherDisplay:10.37,2013-10-22 06:29:00,
2013-10-22 02:34:00,46.9,45.5,29.72,ENE,74,0.0,0.0,95,0.00,OVC,OVC,0.00,WeatherDisplay:10.37,2013-10-22 06:34:00,
2013-10-22 02:39:00,46.8,45.4,29.72,ENE,74,0.0,0.0,95,0.00,OVC,OVC,0.00,WeatherDisplay:10.37,2013-10-22 06:39:00,
2013-10-22 02:44:00,46.7,45.6,29.72,ENE,74,0.0,0.0,96,0.00,OVC,OVC,0.00,WeatherDisplay:10.37,2013-10-22 06:44:00,
2013-10-22 02:49:00,46.7,45.6,29.72,ENE,74,0.0,0.0,96,0.00,OVC,OVC,0.00,WeatherDisplay:10.37,2013-10-22 06:49:00,
2013-10-22 02:54:00,46.7,45.6,29.72,ENE,74,0.0,0.0,96,0.00,OVC,OVC,0.00,WeatherDisplay:10.37,2013-10-22 06:54:00,
2013-10-22 02:59:00,46.7,45.6,29.72,ENE,74,0.0,0.0,96,0.00,OVC,OVC,0.00,WeatherDisplay:10.37,2013-10-22 06:59:00,
2013-10-22 03:04:00,46.6,45.5,29.71,ENE,74,0.0,0.0,96,0.00,OVC,OVC,0.00,WeatherDisplay:10.37,2013-10-22 07:04:00,
2013-10-22 03:09:00,46.6,45.5,29.71,ENE,74,0.0,0.0,96,0.00,OVC,OVC,0.00,WeatherDisplay:10.37,2013-10-22 07:09:00,
2013-10-22 03:14:00,46.6,45.5,29.71,ENE,74,0.0,0.0,96,0.00,OVC,OVC,0.00,WeatherDisplay:10.37,2013-10-22 07:14:00,
2013-10-22 03:19:00,46.6,45.5,29.71,ENE,74,0.0,0.0,96,0.01,RA,OVC,0.01,WeatherDisplay:10.37,2013-10-22 07:19:00,
2013-10-22 03:24:00,46.6,45.5,29.71,ENE,74,0.0,0.0,96,0.00,RA,OVC,0.01,WeatherDisplay:10.37,2013-10-22 07:24:00,
2013-10-22 03:29:00,46.6,45.5,29.71,ENE,74,0.0,0.0,96,0.00,OVC,OVC,0.01,WeatherDisplay:10.37,2013-10-22 07:29:00,
2013-10-22 03:34:00,46.5,45.4,29.70,ENE,74,0.0,0.0,96,0.00,OVC,OVC,0.01,WeatherDisplay:10.37,2013-10-22 07:34:00,
2013-10-22 03:39:00,46.5,45.4,29.70,ENE,74,0.0,0.0,96,0.00,OVC,OVC,0.01,WeatherDisplay:10.37,2013-10-22 07:39:00,
2013-10-22 03:44:00,46.5,45.7,29.70,ENE,74,0.0,0.0,97,0.00,OVC,OVC,0.01,WeatherDisplay:10.37,2013-10-22 07:44:00,
2013-10-22 03:49:00,46.4,46.4,29.70,ENE,74,0.0,0.0,100,0.00,OVC,OVC,0.01,WeatherDisplay:10.37,2013-10-22 07:49:00,
2013-10-22 03:54:00,46.4,46.4,29.70,ENE,74,0.0,0.0,100,0.00,OVC,OVC,0.01,WeatherDisplay:10.37,2013-10-22 07:54:00,
2013-10-22 03:59:00,46.4,46.4,29.70,ENE,74,0.0,0.0,100,0.00,OVC,OVC,0.01,WeatherDisplay:10.37,2013-10-22 07:59:00,
2013-10-22 04:04:00,46.4,46.4,29.70,ENE,74,0.0,0.0,100,0.00,OVC,OVC,0.01,WeatherDisplay:10.37,2013-10-22 08:04:00,
2013-10-22 04:09:00,46.4,46.4,29.71,SE,145,0.0,0.0,100,0.01,RA,OVC,0.02,WeatherDisplay:10.37,2013-10-22 08:09:00,
2013-10-22 04:14:00,46.4,46.4,29.69,SW,221,0.0,0.0,100,0.00,RA,OVC,0.02,WeatherDisplay:10.37,2013-10-22 08:14:00,
2013-10-22 04:19:00,46.4,46.4,29.69,SW,227,0.0,0.0,100,0.00,OVC,OVC,0.02,WeatherDisplay:10.37,2013-10-22 08:19:00,
2013-10-22 04:24:00,46.3,46.3,29.69,SW,227,0.0,0.0,100,0.00,OVC,OVC,0.02,WeatherDisplay:10.37,2013-10-22 08:24:00,
2013-10-22 04:29:00,46.3,46.3,29.70,SW,227,0.0,0.0,100,0.00,OVC,OVC,0.02,WeatherDisplay:10.37,2013-10-22 08:29:00,
2013-10-22 04:34:00,46.4,46.4,29.69,SW,227,0.0,0.0,100,0.00,OVC,OVC,0.02,WeatherDisplay:10.37,2013-10-22 08:34:00,
2013-10-22 04:39:00,46.3,46.3,29.70,SW,227,0.0,0.0,100,0.00,OVC,OVC,0.02,WeatherDisplay:10.37,2013-10-22 08:39:00,
2013-10-22 04:44:00,46.3,46.3,29.70,SW,227,0.0,0.0,100,0.00,OVC,OVC,0.02,WeatherDisplay:10.37,2013-10-22 08:44:00,
2013-10-22 04:49:00,46.4,46.4,29.70,SW,227,0.0,0.0,100,0.01,RA,OVC,0.02,WeatherDisplay:10.37,2013-10-22 08:49:00,
2013-10-22 04:54:00,46.5,46.5,29.70,SW,227,0.0,1.0,100,0.00,RA,OVC,0.02,WeatherDisplay:10.37,2013-10-22 08:54:00,
2013-10-22 04:59:00,46.7,46.7,29.70,WSW,241,0.0,1.0,100,0.00,OVC,OVC,0.02,WeatherDisplay:10.37,2013-10-22 08:59:00,
2013-10-22 05:04:00,46.9,46.9,29.69,West,267,0.0,0.0,100,0.01,RA,OVC,0.03,WeatherDisplay:10.37,2013-10-22 09:04:00,
2013-10-22 05:09:00,47.0,47.0,29.69,West,267,0.0,0.0,100,0.00,RA,OVC,0.03,WeatherDisplay:10.37,2013-10-22 09:09:00,
2013-10-22 05:19:00,47.0,47.0,29.69,West,267,0.0,0.0,100,0.01,-RA,OVC,0.05,WeatherDisplay:10.37,2013-10-22 09:19:00,
2013-10-22 05:24:00,47.0,47.0,29.69,West,267,0.0,0.0,100,0.01,-RA,OVC,0.05,WeatherDisplay:10.37,2013-10-22 09:24:00,
2013-10-22 05:29:00,46.9,46.9,29.69,West,267,0.0,0.0,100,0.01,-RA,OVC,0.06,WeatherDisplay:10.37,2013-10-22 09:29:00,
2013-10-22 05:34:00,47.0,47.0,29.69,West,262,0.0,0.0,100,0.00,-RA,OVC,0.06,WeatherDisplay:10.37,2013-10-22 09:34:00,
2013-10-22 05:39:00,47.0,47.0,29.69,WSW,248,0.0,0.0,100,0.01,-RA,OVC,0.07,WeatherDisplay:10.37,2013-10-22 09:39:00,
2013-10-22 05:44:00,47.0,47.0,29.68,WSW,240,0.0,0.0,100,0.00,-RA,OVC,0.08,WeatherDisplay:10.37,2013-10-22 09:44:00,
2013-10-22 05:49:00,47.1,47.1,29.68,WSW,240,0.0,0.0,100,0.01,-RA,OVC,0.08,WeatherDisplay:10.37,2013-10-22 09:49:00,
2013-10-22 05:54:00,46.9,46.9,29.68,WSW,240,0.0,0.0,100,0.00,-RA,OVC,0.08,WeatherDisplay:10.37,2013-10-22 09:54:00,
2013-10-22 05:59:00,46.9,46.9,29.68,WSW,240,0.0,0.0,100,0.01,-RA,OVC,0.09,WeatherDisplay:10.37,2013-10-22 09:59:00,
2013-10-22 06:04:00,47.0,47.0,29.68,WSW,238,0.0,0.0,100,0.00,-RA,OVC,0.09,WeatherDisplay:10.37,2013-10-22 10:04:00,
2013-10-22 06:09:00,47.0,47.0,29.67,WSW,237,0.0,0.0,100,0.01,-RA,OVC,0.09,WeatherDisplay:10.37,2013-10-22 10:09:00,
2013-10-22 06:14:00,46.9,46.9,29.67,WSW,237,0.0,0.0,100,0.01,-RA,OVC,0.10,WeatherDisplay:10.37,2013-10-22 10:14:00,
2013-10-22 06:19:00,46.9,46.9,29.68,WSW,237,0.0,0.0,100,0.00,-RA,OVC,0.10,WeatherDisplay:10.37,2013-10-22 10:19:00,
2013-10-22 06:24:00,47.0,47.0,29.67,WSW,237,0.0,0.0,100,0.01,-RA,OVC,0.11,WeatherDisplay:10.37,2013-10-22 10:24:00,
2013-10-22 06:29:00,46.9,46.9,29.67,WSW,237,0.0,0.0,100,0.00,-RA,OVC,0.11,WeatherDisplay:10.37,2013-10-22 10:29:00,
2013-10-22 06:34:00,46.8,46.8,29.67,WSW,237,0.0,0.0,100,0.01,-RA,OVC,0.12,WeatherDisplay:10.37,2013-10-22 10:34:00,
2013-10-22 06:39:00,46.8,46.8,29.66,WSW,237,0.0,0.0,100,0.00,-RA,OVC,0.12,WeatherDisplay:10.37,2013-10-22 10:39:00,
2013-10-22 06:44:00,46.8,46.8,29.66,WSW,237,0.0,0.0,100,0.00,-RA,OVC,0.12,WeatherDisplay:10.37,2013-10-22 10:44:00,
2013-10-22 06:49:00,46.8,46.8,29.66,WSW,237,0.0,0.0,100,0.01,-RA,OVC,0.13,WeatherDisplay:10.37,2013-10-22 10:49:00,
2013-10-22 06:54:00,46.9,46.9,29.66,WSW,237,0.0,0.0,100,0.00,-RA,OVC,0.13,WeatherDisplay:10.37,2013-10-22 10:54:00,
2013-10-22 06:59:00,46.9,46.9,29.66,WSW,237,0.0,0.0,100,0.00,-RA,OVC,0.13,WeatherDisplay:10.37,2013-10-22 10:59:00,
2013-10-22 07:04:00,47.0,47.0,29.66,WSW,237,0.0,0.0,100,0.00,-RA,OVC,0.13,WeatherDisplay:10.37,2013-10-22 11:04:00,
2013-10-22 07:09:00,47.1,47.1,29.65,WSW,237,0.0,0.0,100,0.00,-RA,OVC,0.13,WeatherDisplay:10.37,2013-10-22 11:09:00,
2013-10-22 07:14:00,47.1,47.1,29.65,SW,230,0.0,1.0,100,0.01,-RA,OVC,0.13,WeatherDisplay:10.37,2013-10-22 11:14:00,
2013-10-22 07:19:00,47.1,47.1,29.65,SSW,193,0.0,1.0,100,0.01,-RA,OVC,0.14,WeatherDisplay:10.37,2013-10-22 11:19:00,
2013-10-22 07:24:00,47.1,47.1,29.65,South,175,0.0,1.0,100,0.01,-RA,OVC,0.15,WeatherDisplay:10.37,2013-10-22 11:24:00,
2013-10-22 07:29:00,47.1,47.1,29.65,South,170,0.0,0.0,100,0.00,-RA,OVC,0.15,WeatherDisplay:10.37,2013-10-22 11:29:00,
2013-10-22 07:34:00,47.2,47.2,29.65,South,170,0.0,1.0,100,0.01,-RA,OVC,0.16,WeatherDisplay:10.37,2013-10-22 11:34:00,
2013-10-22 07:39:00,47.2,47.2,29.65,South,170,0.0,1.0,100,0.01,-RA,OVC,0.17,WeatherDisplay:10.37,2013-10-22 11:39:00,
2013-10-22 07:44:00,47.3,47.3,29.65,South,171,0.0,0.0,100,0.01,-RA,OVC,0.17,WeatherDisplay:10.37,2013-10-22 11:44:00,
2013-10-22 07:49:00,47.3,47.3,29.65,South,171,0.0,1.0,100,0.00,-RA,OVC,0.17,WeatherDisplay:10.37,2013-10-22 11:49:00,
2013-10-22 07:54:00,47.4,47.4,29.65,South,172,0.0,1.0,100,0.00,-RA,OVC,0.17,WeatherDisplay:10.37,2013-10-22 11:54:00,
2013-10-22 07:59:00,47.5,47.5,29.65,South,174,0.0,2.0,100,0.01,-RA,OVC,0.18,WeatherDisplay:10.37,2013-10-22 11:59:00,
2013-10-22 08:04:00,47.5,47.5,29.65,South,182,0.0,2.0,100,0.00,-RA,OVC,0.18,WeatherDisplay:10.37,2013-10-22 12:04:00,
2013-10-22 08:09:00,47.6,47.6,29.65,South,190,0.0,0.0,100,0.01,-RA,OVC,0.19,WeatherDisplay:10.37,2013-10-22 12:09:00,
2013-10-22 08:14:00,47.6,47.6,29.64,South,190,0.0,1.0,100,0.00,-RA,OVC,0.19,WeatherDisplay:10.37,2013-10-22 12:14:00,
2013-10-22 08:19:00,47.7,47.7,29.64,South,190,0.0,1.0,100,0.01,-RA,OVC,0.20,WeatherDisplay:10.37,2013-10-22 12:19:00,
2013-10-22 08:24:00,47.7,47.7,29.64,South,181,0.0,3.0,100,0.01,-RA,OVC,0.20,WeatherDisplay:10.37,2013-10-22 12:24:00,
2013-10-22 08:29:00,47.8,47.8,29.64,South,182,0.0,0.0,100,0.00,-RA,OVC,0.20,WeatherDisplay:10.37,2013-10-22 12:29:00,
2013-10-22 08:34:00,47.9,47.9,29.64,South,176,0.0,5.0,100,0.00,-RA,OVC,0.20,WeatherDisplay:10.37,2013-10-22 12:34:00,
2013-10-22 08:39:00,48.0,48.0,29.64,South,173,0.0,1.0,100,0.00,-RA,OVC,0.20,WeatherDisplay:10.37,2013-10-22 12:39:00,
2013-10-22 08:44:00,48.1,48.1,29.64,South,170,0.0,2.0,100,0.00,-RA,OVC,0.20,WeatherDisplay:10.37,2013-10-22 12:44:00,
2013-10-22 08:49:00,48.1,48.1,29.63,SSE,168,0.0,4.0,100,0.00,-RA,OVC,0.20,WeatherDisplay:10.37,2013-10-22 12:49:00,
2013-10-22 08:54:00,48.1,48.1,29.63,South,186,1.0,2.0,100,0.01,-RA,OVC,0.21,WeatherDisplay:10.37,2013-10-22 12:54:00,
2013-10-22 08:59:00,48.2,48.2,29.63,South,184,1.0,4.0,100,0.00,-RA,OVC,0.21,WeatherDisplay:10.37,2013-10-22 12:59:00,
2013-10-22 09:04:00,48.2,48.2,29.63,South,179,1.0,9.0,100,0.01,-RA,OVC,0.22,WeatherDisplay:10.37,2013-10-22 13:04:00,
2013-10-22 09:09:00,48.3,48.3,29.62,South,188,0.0,4.0,100,0.00,-RA,OVC,0.22,WeatherDisplay:10.37,2013-10-22 13:09:00,
2013-10-22 09:14:00,48.4,48.4,29.62,South,178,0.0,3.0,100,0.01,-RA,OVC,0.23,WeatherDisplay:10.37,2013-10-22 13:14:00,
2013-10-22 09:24:00,48.4,48.4,29.62,South,179,1.0,5.0,100,0.01,-RA,OVC,0.24,WeatherDisplay:10.37,2013-10-22 13:24:00,
2013-10-22 09:29:00,48.5,48.5,29.62,SSW,192,1.0,6.0,100,0.01,-RA,OVC,0.24,WeatherDisplay:10.37,2013-10-22 13:29:00,
2013-10-22 09:34:00,48.6,48.6,29.62,South,185,0.0,2.0,100,0.00,-RA,OVC,0.24,WeatherDisplay:10.37,2013-10-22 13:34:00,
2013-10-22 09:39:00,48.7,48.7,29.62,SSW,197,0.0,4.0,100,0.00,-RA,OVC,0.24,WeatherDisplay:10.37,2013-10-22 13:39:00,
2013-10-22 09:44:00,48.7,48.7,29.62,SW,219,2.0,12.0,100,0.02,-RA,OVC,0.26,WeatherDisplay:10.37,2013-10-22 13:44:00,
2013-10-22 09:49:00,48.6,48.6,29.62,WSW,238,1.0,13.0,100,0.01,-RA,OVC,0.27,WeatherDisplay:10.37,2013-10-22 13:49:00,
2013-10-22 09:54:00,48.4,48.4,29.63,West,260,5.0,12.0,100,0.01,-RA,OVC,0.28,WeatherDisplay:10.37,2013-10-22 13:54:00,
2013-10-22 09:59:00,47.3,47.3,29.64,WNW,288,9.0,22.0,100,0.03,-RA,OVC,0.31,WeatherDisplay:10.37,2013-10-22 13:59:00,
2013-10-22 10:04:00,45.9,44.9,29.64,West,261,6.0,20.0,96,0.00,-RA,OVC,0.31,WeatherDisplay:10.37,2013-10-22 14:04:00,
2013-10-22 10:09:00,45.3,44.3,29.64,WNW,292,7.0,14.0,96,0.01,-RA,OVC,0.31,WeatherDisplay:10.37,2013-10-22 14:09:00,
2013-10-22 10:14:00,44.9,43.9,29.64,West,273,8.0,22.0,96,0.01,RA,OVC,0.32,WeatherDisplay:10.37,2013-10-22 14:14:00,
2013-10-22 10:19:00,44.3,43.3,29.64,WSW,256,6.0,15.0,96,0.00,RA,OVC,0.32,WeatherDisplay:10.37,2013-10-22 14:19:00,
2013-10-22 10:29:00,43.8,42.5,29.64,WSW,250,3.0,11.0,95,0.00,RA,OVC,0.33,WeatherDisplay:10.37,2013-10-22 14:29:00,
2013-10-22 10:34:00,44.0,43.0,29.64,WSW,252,3.0,12.0,96,0.00,OVC,OVC,0.33,WeatherDisplay:10.37,2013-10-22 14:34:00,
2013-10-22 10:39:00,44.4,43.3,29.64,WSW,243,2.0,10.0,96,0.00,OVC,OVC,0.33,WeatherDisplay:10.37,2013-10-22 14:39:00,
2013-10-22 10:44:00,44.4,43.0,29.64,WSW,244,3.0,12.0,95,0.00,OVC,OVC,0.33,WeatherDisplay:10.37,2013-10-22 14:44:00,
2013-10-22 10:49:00,44.0,42.1,29.63,WSW,237,2.0,12.0,93,0.00,OVC,OVC,0.33,WeatherDisplay:10.37,2013-10-22 14:49:00,
2013-10-22 10:59:00,43.5,41.3,29.64,West,263,3.0,7.0,92,0.00,OVC,OVC,0.33,WeatherDisplay:10.37,2013-10-22 14:59:00,
2013-10-22 11:04:00,43.5,41.3,29.64,WSW,247,2.0,12.0,92,0.00,OVC,OVC,0.33,WeatherDisplay:10.37,2013-10-22 15:04:00,
2013-10-22 11:09:00,43.6,41.4,29.63,West,277,1.0,12.0,92,0.00,OVC,OVC,0.33,WeatherDisplay:10.37,2013-10-22 15:09:00,
2013-10-22 11:14:00,43.8,41.7,29.64,WNW,282,2.0,8.0,92,0.00,BKN,OVC,0.33,WeatherDisplay:10.37,2013-10-22 15:14:00,
2013-10-22 11:19:00,43.9,41.7,29.65,SW,230,5.0,9.0,92,0.00,BKN,OVC,0.33,WeatherDisplay:10.37,2013-10-22 15:19:00,
2013-10-22 11:29:00,43.8,41.9,29.65,WSW,246,2.0,12.0,93,0.00,BKN,OVC,0.33,WeatherDisplay:10.37,2013-10-22 15:29:00,
2013-10-22 11:34:00,44.0,41.9,29.64,WSW,240,1.0,10.0,92,0.00,BKN,OVC,0.33,WeatherDisplay:10.37,2013-10-22 15:34:00,
2013-10-22 11:39:00,44.7,42.5,29.64,WSW,251,2.0,9.0,92,0.00,BKN,OVC,0.33,WeatherDisplay:10.37,2013-10-22 15:39:00,
2013-10-22 11:44:00,45.5,42.5,29.64,West,269,3.0,12.0,89,0.00,BKN,OVC,0.33,WeatherDisplay:10.37,2013-10-22 15:44:00,
2013-10-22 11:49:00,46.2,42.8,29.64,WNW,301,3.0,13.0,88,0.00,BKN,OVC,0.33,WeatherDisplay:10.37,2013-10-22 15:49:00,
2013-10-22 11:59:00,47.0,43.4,29.63,SW,236,5.0,14.0,87,0.00,BKN,OVC,0.33,WeatherDisplay:10.37,2013-10-22 15:59:00,
2013-10-22 12:04:00,47.1,42.5,29.63,WSW,253,6.0,15.0,84,0.00,BKN,OVC,0.33,WeatherDisplay:10.37,2013-10-22 16:04:00,
2013-10-22 12:09:00,47.4,42.8,29.63,WSW,256,3.0,14.0,84,0.00,BKN,OVC,0.33,WeatherDisplay:10.37,2013-10-22 16:09:00,
2013-10-22 12:14:00,48.0,43.1,29.63,West,259,8.0,20.0,83,0.00,BKN,OVC,0.33,WeatherDisplay:10.37,2013-10-22 16:14:00,
2013-10-22 12:19:00,48.1,41.9,29.63,SW,230,6.0,12.0,79,0.00,BKN,OVC,0.33,WeatherDisplay:10.37,2013-10-22 16:19:00,
2013-10-22 12:24:00,47.7,41.9,29.63,SW,230,5.0,15.0,80,0.00,BKN,OVC,0.33,WeatherDisplay:10.37,2013-10-22 16:24:00,
2013-10-22 12:29:00,47.1,40.9,29.63,West,275,8.0,15.0,79,0.00,BKN,OVC,0.33,WeatherDisplay:10.37,2013-10-22 16:29:00,
2013-10-22 12:34:00,47.3,41.1,29.63,WNW,299,6.0,10.0,79,0.00,BKN,OVC,0.33,WeatherDisplay:10.37,2013-10-22 16:34:00,
2013-10-22 12:39:00,47.2,40.4,29.63,West,279,7.0,15.0,77,0.00,BKN,OVC,0.33,WeatherDisplay:10.37,2013-10-22 16:39:00,
2013-10-22 12:44:00,46.8,38.9,29.63,West,281,5.0,12.0,74,0.00,BKN,OVC,0.33,WeatherDisplay:10.37,2013-10-22 16:44:00,
2013-10-22 12:49:00,47.1,39.2,29.63,West,267,6.0,17.0,74,0.00,BKN,OVC,0.33,WeatherDisplay:10.37,2013-10-22 16:49:00,
2013-10-22 12:54:00,47.7,39.8,29.62,West,274,3.0,14.0,74,0.00,BKN,OVC,0.33,WeatherDisplay:10.37,2013-10-22 16:54:00,
2013-10-22 12:59:00,48.5,39.5,29.62,WNW,291,6.0,16.0,71,0.00,BKN,OVC,0.33,WeatherDisplay:10.37,2013-10-22 16:59:00,
2013-10-22 13:04:00,48.7,38.6,29.62,WSW,249,6.0,18.0,68,0.00,BKN,OVC,0.33,WeatherDisplay:10.37,2013-10-22 17:04:00,
2013-10-22 13:09:00,48.7,37.8,29.62,West,259,8.0,18.0,66,0.00,BKN,OVC,0.33,WeatherDisplay:10.37,2013-10-22 17:09:00,
2013-10-22 13:14:00,48.9,38.4,29.62,WSW,253,7.0,16.0,67,0.00,BKN,OVC,0.33,WeatherDisplay:10.37,2013-10-22 17:14:00,
2013-10-22 13:19:00,49.2,37.9,29.63,West,259,12.0,24.0,65,0.00,BKN,OVC,0.33,WeatherDisplay:10.37,2013-10-22 17:19:00,
2013-10-22 13:29:00,48.8,37.9,29.63,SW,235,7.0,15.0,66,0.00,BKN,OVC,0.33,WeatherDisplay:10.37,2013-10-22 17:29:00,
2013-10-22 13:34:00,49.2,37.9,29.63,WSW,242,6.0,16.0,65,0.00,BKN,OVC,0.33,WeatherDisplay:10.37,2013-10-22 17:34:00,
2013-10-22 13:39:00,49.7,38.0,29.63,WSW,253,7.0,13.0,64,0.00,BKN,OVC,0.33,WeatherDisplay:10.37,2013-10-22 17:39:00,
2013-10-22 13:44:00,49.7,37.2,29.63,West,271,7.0,14.0,62,0.00,BKN,OVC,0.33,WeatherDisplay:10.37,2013-10-22 17:44:00,
2013-10-22 13:49:00,49.6,36.7,29.63,West,278,7.0,21.0,61,0.00,BKN,OVC,0.33,WeatherDisplay:10.37,2013-10-22 17:49:00,
2013-10-22 13:54:00,49.5,36.2,29.63,WNW,285,7.0,26.0,60,0.00,BKN,OVC,0.33,WeatherDisplay:10.37,2013-10-22 17:54:00,
2013-10-22 13:59:00,50.4,37.0,29.63,West,278,6.0,15.0,60,0.00,BKN,OVC,0.33,WeatherDisplay:10.37,2013-10-22 17:59:00,
2013-10-22 14:09:00,49.2,36.3,29.63,West,261,9.0,17.0,61,0.00,BKN,OVC,0.33,WeatherDisplay:10.37,2013-10-22 18:09:00,
2013-10-22 14:14:00,48.6,35.7,29.63,West,260,8.0,18.0,61,0.00,BKN,OVC,0.33,WeatherDisplay:10.37,2013-10-22 18:14:00,
2013-10-22 14:19:00,48.6,36.2,29.63,West,278,6.0,18.0,62,0.00,BKN,OVC,0.33,WeatherDisplay:10.37,2013-10-22 18:19:00,
2013-10-22 14:24:00,48.5,35.7,29.63,SSW,213,1.0,18.0,61,0.00,BKN,OVC,0.33,WeatherDisplay:10.37,2013-10-22 18:24:00,
2013-10-22 14:29:00,48.4,36.0,29.63,SW,217,5.0,14.0,62,0.00,BKN,OVC,0.33,WeatherDisplay:10.37,2013-10-22 18:29:00,
2013-10-22 14:34:00,48.2,34.5,29.64,WSW,253,8.0,16.0,59,0.00,BKN,OVC,0.33,WeatherDisplay:10.37,2013-10-22 18:34:00,
2013-10-22 14:39:00,48.0,33.9,29.64,WSW,240,7.0,14.0,58,0.00,BKN,OVC,0.33,WeatherDisplay:10.37,2013-10-22 18:39:00,
2013-10-22 14:44:00,48.1,34.0,29.64,WSW,256,3.0,12.0,58,0.00,BKN,OVC,0.33,WeatherDisplay:10.37,2013-10-22 18:44:00,
2013-10-22 14:49:00,48.5,34.4,29.64,West,263,8.0,15.0,58,0.00,BKN,OVC,0.33,WeatherDisplay:10.37,2013-10-22 18:49:00,
2013-10-22 14:54:00,48.5,33.1,29.64,West,262,10.0,23.0,55,0.00,BKN,OVC,0.33,WeatherDisplay:10.37,2013-10-22 18:54:00,
2013-10-22 14:59:00,48.0,33.5,29.64,WNW,284,7.0,15.0,57,0.00,BKN,OVC,0.33,WeatherDisplay:10.37,2013-10-22 18:59:00,
2013-10-22 15:09:00,48.6,32.7,29.64,WNW,289,5.0,14.0,54,0.00,BKN,OVC,0.33,WeatherDisplay:10.37,2013-10-22 19:09:00,
2013-10-22 15:14:00,49.1,33.1,29.64,West,266,6.0,18.0,54,0.00,BKN,OVC,0.33,WeatherDisplay:10.37,2013-10-22 19:14:00,
2013-10-22 15:19:00,49.3,33.3,29.64,West,261,2.0,16.0,54,0.00,BKN,OVC,0.33,WeatherDisplay:10.37,2013-10-22 19:19:00,
2013-10-22 15:24:00,49.0,31.2,29.65,WSW,258,8.0,20.0,50,0.00,BKN,OVC,0.33,WeatherDisplay:10.37,2013-10-22 19:24:00,
2013-10-22 15:29:00,48.3,29.0,29.65,WSW,253,6.0,20.0,47,0.00,BKN,OVC,0.33,WeatherDisplay:10.37,2013-10-22 19:29:00,
2013-10-22 15:34:00,48.2,29.9,29.65,WSW,250,5.0,14.0,49,0.00,BKN,OVC,0.33,WeatherDisplay:10.37,2013-10-22 19:34:00,
2013-10-22 15:39:00,48.4,29.6,29.65,West,275,6.0,16.0,48,0.00,BKN,OVC,0.33,WeatherDisplay:10.37,2013-10-22 19:39:00,
2013-10-22 15:44:00,48.5,30.2,29.65,West,265,9.0,17.0,49,0.00,BKN,OVC,0.33,WeatherDisplay:10.37,2013-10-22 19:44:00,
2013-10-22 15:49:00,48.5,30.2,29.65,WSW,246,6.0,18.0,49,0.00,BKN,OVC,0.33,WeatherDisplay:10.37,2013-10-22 19:49:00,
2013-10-22 15:54:00,48.6,30.8,29.65,WSW,257,5.0,17.0,50,0.00,BKN,OVC,0.33,WeatherDisplay:10.37,2013-10-22 19:54:00,
2013-10-22 15:59:00,48.6,30.3,29.65,WSW,249,3.0,14.0,49,0.00,BKN,OVC,0.33,WeatherDisplay:10.37,2013-10-22 19:59:00,
2013-10-22 16:04:00,48.7,31.4,29.65,WSW,251,2.0,7.0,51,0.00,BKN,OVC,0.33,WeatherDisplay:10.37,2013-10-22 20:04:00,
2013-10-22 16:09:00,48.6,30.8,29.65,West,264,6.0,12.0,50,0.00,BKN,OVC,0.33,WeatherDisplay:10.37,2013-10-22 20:09:00,
2013-10-22 16:14:00,48.2,30.4,29.66,WSW,241,8.0,16.0,50,0.00,SCT,OVC,0.33,WeatherDisplay:10.37,2013-10-22 20:14:00,
2013-10-22 16:19:00,47.9,30.1,29.66,WSW,255,6.0,12.0,50,0.00,SCT,OVC,0.33,WeatherDisplay:10.37,2013-10-22 20:19:00,
2013-10-22 16:24:00,47.8,30.5,29.66,SW,228,6.0,12.0,51,0.00,SCT,OVC,0.33,WeatherDisplay:10.37,2013-10-22 20:24:00,
2013-10-22 16:29:00,47.6,30.8,29.66,SW,236,5.0,17.0,52,0.00,SCT,OVC,0.33,WeatherDisplay:10.37,2013-10-22 20:29:00,
2013-10-22 16:34:00,47.4,32.0,29.66,WSW,242,3.0,17.0,55,0.00,SCT,OVC,0.33,WeatherDisplay:10.37,2013-10-22 20:34:00,
2013-10-22 16:39:00,47.2,31.4,29.66,WSW,254,5.0,13.0,54,0.00,SCT,OVC,0.33,WeatherDisplay:10.37,2013-10-22 20:39:00,
2013-10-22 16:44:00,47.1,31.3,29.66,WSW,253,5.0,22.0,54,0.00,SCT,OVC,0.33,WeatherDisplay:10.37,2013-10-22 20:44:00,
2013-10-22 16:49:00,47.1,31.3,29.66,WSW,245,3.0,13.0,54,0.00,SCT,OVC,0.33,WeatherDisplay:10.37,2013-10-22 20:49:00,
2013-10-22 16:54:00,46.9,31.6,29.67,WSW,251,3.0,11.0,55,0.00,SCT,OVC,0.33,WeatherDisplay:10.37,2013-10-22 20:54:00,
2013-10-22 16:59:00,46.7,31.4,29.67,West,275,6.0,17.0,55,0.00,SCT,OVC,0.33,WeatherDisplay:10.37,2013-10-22 20:59:00,
2013-10-22 17:04:00,46.7,30.9,29.67,West,274,3.0,12.0,54,0.00,SCT,OVC,0.33,WeatherDisplay:10.37,2013-10-22 21:04:00,
2013-10-22 17:09:00,46.6,30.8,29.67,WNW,284,3.0,9.0,54,0.00,SCT,OVC,0.33,WeatherDisplay:10.37,2013-10-22 21:09:00,
2013-10-22 17:14:00,46.4,31.1,29.67,West,265,3.0,8.0,55,0.00,FEW,OVC,0.33,WeatherDisplay:10.37,2013-10-22 21:14:00,
2013-10-22 17:19:00,46.3,31.8,29.67,WSW,239,1.0,8.0,57,0.00,FEW,OVC,0.33,WeatherDisplay:10.37,2013-10-22 21:19:00,
2013-10-22 17:24:00,46.0,31.6,29.68,WSW,244,3.0,13.0,57,0.00,FEW,OVC,0.33,WeatherDisplay:10.37,2013-10-22 21:24:00,
2013-10-22 17:29:00,45.9,30.6,29.68,West,267,5.0,14.0,55,0.00,FEW,OVC,0.33,WeatherDisplay:10.37,2013-10-22 21:29:00,
2013-10-22 17:34:00,45.9,30.6,29.68,WNW,289,5.0,12.0,55,0.00,FEW,OVC,0.33,WeatherDisplay:10.37,2013-10-22 21:34:00,
2013-10-22 17:39:00,45.7,30.9,29.68,NW,305,3.0,10.0,56,0.00,FEW,OVC,0.33,WeatherDisplay:10.37,2013-10-22 21:39:00,
2013-10-22 17:44:00,45.3,30.9,29.68,WNW,290,5.0,10.0,57,0.00,FEW,OVC,0.33,WeatherDisplay:10.37,2013-10-22 21:44:00,
2013-10-22 17:49:00,45.0,30.7,29.68,West,274,2.0,7.0,57,0.00,FEW,OVC,0.33,WeatherDisplay:10.37,2013-10-22 21:49:00,
2013-10-22 17:54:00,44.7,31.3,29.69,WNW,289,2.0,5.0,59,0.00,FEW,OVC,0.33,WeatherDisplay:10.37,2013-10-22 21:54:00,
2013-10-22 17:59:00,44.6,31.1,29.68,WNW,301,2.0,9.0,59,0.00,FEW,OVC,0.33,WeatherDisplay:10.37,2013-10-22 21:59:00,
2013-10-22 18:09:00,43.7,31.5,29.69,West,263,0.0,2.0,62,0.00,FEW,OVC,0.33,WeatherDisplay:10.37,2013-10-22 22:09:00,
2013-10-22 18:14:00,43.3,31.5,29.69,West,274,0.0,4.0,63,0.00,FEW,OVC,0.33,WeatherDisplay:10.37,2013-10-22 22:14:00,
2013-10-22 18:19:00,43.0,31.6,29.69,West,273,0.0,2.0,64,0.00,FEW,OVC,0.33,WeatherDisplay:10.37,2013-10-22 22:19:00,
2013-10-22 18:29:00,42.2,31.7,29.69,West,271,0.0,0.0,66,0.00,FEW,OVC,0.33,WeatherDisplay:10.37,2013-10-22 22:29:00,
2013-10-22 18:34:00,41.8,31.6,29.69,West,271,0.0,0.0,67,0.00,FEW,OVC,0.33,WeatherDisplay:10.37,2013-10-22 22:34:00,
2013-10-22 18:39:00,40.7,32.8,29.69,West,271,0.0,0.0,73,0.00,FEW,OVC,0.33,WeatherDisplay:10.37,2013-10-22 22:39:00,
2013-10-22 18:44:00,39.6,32.6,29.69,West,271,0.0,0.0,76,0.00,FEW,OVC,0.33,WeatherDisplay:10.37,2013-10-22 22:44:00,
2013-10-22 18:49:00,38.9,32.6,29.69,West,271,0.0,0.0,78,0.00,FEW,OVC,0.33,WeatherDisplay:10.37,2013-10-22 22:49:00,
2013-10-22 18:54:00,38.4,32.8,29.69,West,271,0.0,0.0,80,0.00,FEW,OVC,0.33,WeatherDisplay:10.37,2013-10-22 22:54:00,
2013-10-22 18:59:00,37.9,32.3,29.69,West,271,0.0,0.0,80,0.00,FEW,OVC,0.33,WeatherDisplay:10.37,2013-10-22 22:59:00,
2013-10-22 19:04:00,37.6,32.0,29.69,West,271,0.0,0.0,80,0.00,FEW,OVC,0.33,WeatherDisplay:10.37,2013-10-22 23:04:00,
2013-10-22 19:09:00,37.4,32.1,29.69,West,271,0.0,0.0,81,0.00,FEW,OVC,0.33,WeatherDisplay:10.37,2013-10-22 23:09:00,
2013-10-22 19:14:00,37.3,32.6,29.69,West,271,0.0,0.0,83,0.00,FEW,OVC,0.33,WeatherDisplay:10.37,2013-10-22 23:14:00,
2013-10-22 19:19:00,37.0,32.0,29.69,West,271,0.0,0.0,82,0.00,FEW,OVC,0.33,WeatherDisplay:10.37,2013-10-22 23:19:00,
2013-10-22 19:24:00,36.9,32.5,29.69,West,271,0.0,0.0,84,0.00,FEW,OVC,0.33,WeatherDisplay:10.37,2013-10-22 23:24:00,
2013-10-22 19:29:00,37.0,32.9,29.69,West,271,0.0,0.0,85,0.00,FEW,OVC,0.33,WeatherDisplay:10.37,2013-10-22 23:29:00,
2013-10-22 19:34:00,36.8,32.7,29.68,West,271,0.0,0.0,85,0.00,FEW,OVC,0.33,WeatherDisplay:10.37,2013-10-22 23:34:00,
2013-10-22 19:39:00,36.7,32.9,29.69,West,271,0.0,0.0,86,0.00,FEW,OVC,0.33,WeatherDisplay:10.37,2013-10-22 23:39:00,
2013-10-22 19:44:00,36.7,33.2,29.69,West,271,0.0,0.0,87,0.00,FEW,OVC,0.33,WeatherDisplay:10.37,2013-10-22 23:44:00,
2013-10-22 19:49:00,36.7,32.9,29.69,West,271,0.0,0.0,86,0.00,FEW,OVC,0.33,WeatherDisplay:10.37,2013-10-22 23:49:00,
2013-10-22 19:54:00,36.3,32.3,29.69,West,271,0.0,0.0,85,0.00,FEW,OVC,0.33,WeatherDisplay:10.37,2013-10-22 23:54:00,
2013-10-22 19:59:00,36.0,32.2,29.68,West,271,0.0,0.0,86,0.00,FEW,OVC,0.33,WeatherDisplay:10.37,2013-10-22 23:59:00,
2013-10-22 20:04:00,35.6,32.1,29.68,West,271,0.0,0.0,87,0.00,FEW,OVC,0.33,WeatherDisplay:10.37,2013-10-23 00:04:00,
2013-10-22 20:09:00,35.3,32.1,29.68,West,271,0.0,0.0,88,0.00,FEW,OVC,0.33,WeatherDisplay:10.37,2013-10-23 00:09:00,
2013-10-22 20:14:00,35.0,32.1,29.69,West,271,0.0,0.0,89,0.00,FEW,OVC,0.33,WeatherDisplay:10.37,2013-10-23 00:14:00,
2013-10-22 20:19:00,34.9,32.0,29.68,West,271,0.0,0.0,89,0.00,FEW,OVC,0.33,WeatherDisplay:10.37,2013-10-23 00:19:00,
2013-10-22 20:24:00,34.7,32.1,29.69,West,271,0.0,0.0,90,0.00,FEW,OVC,0.33,WeatherDisplay:10.37,2013-10-23 00:24:00,
2013-10-22 20:29:00,34.5,31.9,29.68,WSW,249,0.0,0.0,90,0.00,FEW,OVC,0.33,WeatherDisplay:10.37,2013-10-23 00:29:00,
2013-10-22 20:34:00,34.2,31.6,29.68,SSW,204,0.0,0.0,90,0.00,FEW,OVC,0.33,WeatherDisplay:10.37,2013-10-23 00:34:00,
2013-10-22 20:39:00,34.2,31.8,29.68,SSW,200,0.0,2.0,91,0.00,FEW,OVC,0.33,WeatherDisplay:10.37,2013-10-23 00:39:00,
2013-10-22 20:44:00,34.5,31.9,29.68,WSW,239,0.0,2.0,90,0.00,FEW,OVC,0.33,WeatherDisplay:10.37,2013-10-23 00:44:00,
2013-10-22 20:49:00,34.6,32.0,29.68,SW,231,0.0,2.0,90,0.00,FEW,OVC,0.33,WeatherDisplay:10.37,2013-10-23 00:49:00,
2013-10-22 20:54:00,35.0,32.0,29.68,SW,222,0.0,2.0,89,0.00,FEW,OVC,0.33,WeatherDisplay:10.37,2013-10-23 00:54:00,
2013-10-22 20:59:00,35.1,31.9,29.68,SW,229,0.0,5.0,88,0.00,FEW,OVC,0.33,WeatherDisplay:10.37,2013-10-23 00:59:00,
2013-10-22 21:04:00,35.5,32.1,29.68,SW,226,0.0,6.0,87,0.00,FEW,OVC,0.33,WeatherDisplay:10.37,2013-10-23 01:04:00,
2013-10-22 21:09:00,36.1,32.6,29.68,SW,222,1.0,6.0,87,0.00,FEW,OVC,0.33,WeatherDisplay:10.37,2013-10-23 01:09:00,
2013-10-22 21:14:00,36.9,33.1,29.69,SW,229,0.0,3.0,86,0.00,FEW,OVC,0.33,WeatherDisplay:10.37,2013-10-23 01:14:00,
2013-10-22 21:19:00,37.4,33.3,29.69,SW,222,2.0,7.0,85,0.00,FEW,OVC,0.33,WeatherDisplay:10.37,2013-10-23 01:19:00,
2013-10-22 21:24:00,37.9,33.5,29.69,SW,226,2.0,9.0,84,0.00,FEW,OVC,0.33,WeatherDisplay:10.37,2013-10-23 01:24:00,
2013-10-22 21:29:00,38.4,33.4,29.69,WSW,244,1.0,4.0,82,0.00,FEW,OVC,0.33,WeatherDisplay:10.37,2013-10-23 01:29:00,
2013-10-22 21:34:00,38.6,33.6,29.69,WSW,245,0.0,9.0,82,0.00,FEW,OVC,0.33,WeatherDisplay:10.37,2013-10-23 01:34:00,
2013-10-22 21:39:00,38.9,33.9,29.69,SW,235,2.0,5.0,82,0.00,FEW,OVC,0.33,WeatherDisplay:10.37,2013-10-23 01:39:00,
2013-10-22 21:44:00,39.1,33.8,29.69,WSW,243,2.0,7.0,81,0.00,FEW,OVC,0.33,WeatherDisplay:10.37,2013-10-23 01:44:00,
2013-10-22 21:49:00,39.1,33.8,29.69,SW,226,2.0,7.0,81,0.00,FEW,OVC,0.33,WeatherDisplay:10.37,2013-10-23 01:49:00,
2013-10-22 21:54:00,39.3,33.9,29.69,WSW,239,2.0,10.0,81,0.00,FEW,OVC,0.33,WeatherDisplay:10.37,2013-10-23 01:54:00,
2013-10-22 21:59:00,39.5,33.8,29.69,WSW,238,1.0,6.0,80,0.00,FEW,OVC,0.33,WeatherDisplay:10.37,2013-10-23 01:59:00,
2013-10-22 22:04:00,39.4,33.7,29.69,West,265,3.0,6.0,80,0.00,FEW,OVC,0.33,WeatherDisplay:10.37,2013-10-23 02:04:00,
2013-10-22 22:09:00,39.4,33.4,29.69,WNW,283,2.0,8.0,79,0.00,FEW,OVC,0.33,WeatherDisplay:10.37,2013-10-23 02:09:00,
2013-10-22 22:14:00,39.5,33.8,29.69,WSW,242,1.0,8.0,80,0.00,FEW,OVC,0.33,WeatherDisplay:10.37,2013-10-23 02:14:00,
2013-10-22 22:19:00,39.5,33.5,29.69,SW,233,2.0,9.0,79,0.00,FEW,OVC,0.33,WeatherDisplay:10.37,2013-10-23 02:19:00,
2013-10-22 22:24:00,39.5,33.5,29.69,WSW,242,3.0,9.0,79,0.00,FEW,OVC,0.33,WeatherDisplay:10.37,2013-10-23 02:24:00,
2013-10-22 22:29:00,39.4,33.4,29.69,WSW,250,3.0,8.0,79,0.00,FEW,OVC,0.33,WeatherDisplay:10.37,2013-10-23 02:29:00,
2013-10-22 22:34:00,39.4,33.1,29.69,SW,231,2.0,7.0,78,0.00,FEW,OVC,0.33,WeatherDisplay:10.37,2013-10-23 02:34:00,
2013-10-22 22:39:00,39.2,32.9,29.69,SW,225,5.0,7.0,78,0.00,FEW,OVC,0.33,WeatherDisplay:10.37,2013-10-23 02:39:00,
2013-10-22 22:44:00,39.0,33.1,29.69,SW,222,0.0,3.0,79,0.00,FEW,OVC,0.33,WeatherDisplay:10.37,2013-10-23 02:44:00,
2013-10-22 22:49:00,38.7,32.7,29.69,SW,218,1.0,5.0,79,0.00,FEW,OVC,0.33,WeatherDisplay:10.37,2013-10-23 02:49:00,
2013-10-22 22:54:00,38.6,32.6,29.69,WSW,241,1.0,6.0,79,0.00,FEW,OVC,0.33,WeatherDisplay:10.37,2013-10-23 02:54:00,
2013-10-22 22:59:00,38.4,32.7,29.69,WSW,248,1.0,5.0,80,0.00,FEW,OVC,0.33,WeatherDisplay:10.37,2013-10-23 02:59:00,
2013-10-22 23:04:00,38.1,32.2,29.69,SW,229,0.0,5.0,79,0.00,FEW,OVC,0.33,WeatherDisplay:10.37,2013-10-23 03:04:00,
2013-10-22 23:09:00,38.0,32.4,29.69,WSW,240,1.0,3.0,80,0.00,FEW,OVC,0.33,WeatherDisplay:10.37,2013-10-23 03:09:00,
2013-10-22 23:14:00,37.9,32.3,29.68,West,265,0.0,3.0,80,0.00,FEW,OVC,0.33,WeatherDisplay:10.37,2013-10-23 03:14:00,
2013-10-22 23:19:00,37.7,32.1,29.68,WNW,288,0.0,1.0,80,0.00,FEW,OVC,0.33,WeatherDisplay:10.37,2013-10-23 03:19:00,
2013-10-22 23:24:00,37.6,32.0,29.68,WNW,292,0.0,0.0,80,0.00,FEW,OVC,0.33,WeatherDisplay:10.37,2013-10-23 03:24:00,
2013-10-22 23:29:00,37.3,31.7,29.68,WNW,290,0.0,2.0,80,0.00,FEW,OVC,0.33,WeatherDisplay:10.37,2013-10-23 03:29:00,
2013-10-22 23:34:00,37.2,31.9,29.68,West,274,0.0,2.0,81,0.00,FEW,OVC,0.33,WeatherDisplay:10.37,2013-10-23 03:34:00,
2013-10-22 23:39:00,37.0,31.7,29.68,WNW,290,0.0,0.0,81,0.00,FEW,OVC,0.33,WeatherDisplay:10.37,2013-10-23 03:39:00,
2013-10-22 23:44:00,36.9,31.9,29.68,WNW,287,0.0,3.0,82,0.00,FEW,OVC,0.33,WeatherDisplay:10.37,2013-10-23 03:44:00,
2013-10-22 23:49:00,36.8,31.8,29.68,WNW,294,0.0,4.0,82,0.00,FEW,OVC,0.33,WeatherDisplay:10.37,2013-10-23 03:49:00,
2013-10-22 23:54:00,36.8,31.8,29.68,WNW,285,1.0,3.0,82,0.00,FEW,OVC,0.33,WeatherDisplay:10.37,2013-10-23 03:54:00,
2013-10-22 23:59:00,36.8,31.8,29.68,WSW,253,2.0,5.0,82,0.00,RA,OVC,0.00,WeatherDisplay:10.37,2013-10-23 03:59:00,